Location: Glencliff
(36.1226°N, 86.7183°W)
Time: 08:03:20
(UTC+00:00)

ADEOS Rocket - Pass Details

Date: 25 August 2019
Orbit: 859 x 1307 km, 98.7° (Epoch: 16 September)

Event Time Altitude Azimuth Distance (km) Brightness Sun altitude
Rises 00:58:09 0° 26° (NNE) 3,695 6.0 -7.1°
Reaches altitude 10° 01:00:54 10° 38° (NE) 2,807 5.2 -7.6°
Maximum altitude 01:06:21 29° 97° (E) 1,864 4.0 -8.7°
Drops below altitude 10° 01:12:14 10° 155° (SSE) 3,063 5.2 -9.8°
Sets 01:15:21 0° 166° (SSE) 4,088 5.9 -10.3°
